Skip Page Navigation
NASA JPL Caltech
NASA Logo - Jet Propulsion Laboratory + View the NASA Portal
+ Center for Near-Earth Object Studies
JPL Home Earth Solar System Stars & Galaxies Technology
JPL Solar System Dynamics
BODIES ORBITS EPHEMERIDES TOOLS PHYSICAL DATA DISCOVERY FAQ SITE MAP
IMPORTANT: The SSD Announcement email list is now available. Major changes are coming in the near future, including possible hostname and/or URL changes. To be notified of such changes, subscribe to this email list.

Please visit this page for more details.


JPL Small-Body Database Browser
Search: [ help ]  
4993 Cossard (1983 GR)
Classification: Main-belt Asteroid          SPK-ID: 2004993
Ephemeris | Orbit Diagram | Orbital Elements | Mission Design | Physical Parameters | Discovery Circumstances | Close-Approach Data ]

[ show orbit diagram ]
Orbital Elements at Epoch 2458600.5 (2019-Apr-27.0) TDB
Reference: JPL 25 (heliocentric ecliptic J2000)
 Element Value Uncertainty (1-sigma)   Units 
e .06073937200408621 4.3803e-08  
a 2.368797889794954 8.7609e-09 au
q 2.224918593564204 1.0488e-07 au
i 6.940289801027575 4.9926e-06 deg
node 36.63498866255254 3.1242e-05 deg
peri 186.3132687227527 4.6047e-05 deg
M 310.2297051570603 3.4599e-05 deg
tp 2458784.601849251800
(2019-Oct-28.10184925)
0.00012811 TDB
period 1331.651056916529
3.65
7.3876e-06
2.023e-08
d
yr
n .2703410913318306 1.4998e-09 deg/d
Q 2.512677186025705 9.293e-09 au
  Orbit Determination Parameters
   # obs. used (total)      1996  
   data-arc span      13178 days (36.08 yr)  
   first obs. used      1983-04-11  
   last obs. used      2019-05-10  
   planetary ephem.      DE431  
   SB-pert. ephem.      SB431-N16  
   condition code      0  
   norm. resid. RMS      .43569  
   source      ORB  
   producer      Otto Matic  
   solution date      2019-May-30 00:49:10  

Additional Information
 Earth MOID = 1.21641 au 
 Jupiter MOID = 2.45589 au 
 T_jup = 3.534 
[ show covariance matrix ]

Ephemeris | Orbit Diagram | Orbital Elements | Mission Design | Physical Parameters | Discovery Circumstances | Close-Approach Data ]

Physical Parameter Table
Parameter Symbol Value Units Sigma Reference Notes
absolute magnitude H 13.3   n/a MPO337294  
SMASSII spectral type spec_B V   n/a EAR-A-5-DDR-TAXONOMY-V4.0 based on a high-resolution spectrum by Xu et al. (1995) or Bus and Binzel (2002)

4993 Cossard           Discovered 1983 Apr. 11 by H. Debehogne and G. De Sanctis at the European Southern Observatory.
Italian archeoastronomer Guido Cossard (b. 1958) made a big contribution to the study of megalithic sites located in Valle d´Aosta, in particular on the interpretation of several engravings with astronomical meanings found there. Of particular importance is his work on the Coligny calendar dating back the Celtic period.
NOTE: some special characters may not display properly (any characters within {} are an attempt to place the proper accent above a character)
Reference: 20050407/MPCPages.arcLast Updated: 2005-04-15

[ show close-approach data ]
Alternate Designations
 1983 GR = 1983 JS = 1988 VA3 
Ephemeris | Orbit Diagram | Orbital Elements | Mission Design | Physical Parameters | Discovery Circumstances | Close-Approach Data ]
ABOUT SSD CREDITS/AWARDS PRIVACY/COPYRIGHT GLOSSARY LINKS
FirstGov 2019-Dec-12 22:18 UT
(server date/time)  
NASA Home Page
Site Manager:   Ryan S. Park
Webmaster  Alan B. Chamberlin